Home   Weather   41°05'N, 73°55'W   Past weeks
Flag for USA

Past Weather in 41°05'N, 73°55'W, USA — Yesterday and Last 2 Weeks

Now
73 °F

Sunny.


Feels Like: 74 °F
Forecast: 78 / 58 °F
Wind: 8 mph from South

Location: New York City - Central Park

Current Time: May 19, 2019 at 7:35:02 pm

Latest Report: May 19, 2019 at 6:51 pm


Visibility: 10 mi

Pressure: 29.90 "Hg

Humidity: 76%

Dew Point: 65 °F

Location of 41°05'N, 73°55'WLocation

Past Weather in 41°05'N, 73°55'W — Graph

°F

41°05'N, 73°55'W Temperature Yesterday

Maximum temperature yesterday: 75 °F (at 3:51 pm)
Minimum temperature yesterday: 56 °F (at 5:51 am)
Average temperature yesterday: 64 °F

High & Low Weather Summary for the Past Weeks

 TemperatureHumidityPressure
High76 °F (May 17, 11:51 am)100% (May 5, 6:15 am)30.34 "Hg (May 5, 6:15 am)
Low42 °F (May 13, 1:51 am)25% (May 18, 2:51 pm)29.70 "Hg (May 17, 3:51 pm)
Average57 °F76%29.96 "Hg
* Reported May 4 5:51 pm — May 19 5:51 pm, 41°05'N, 73°55'W. Weather by CustomWeather, © 2019

Note: Actual official high and low records may vary slightly from our data, if they occured in-between our weather recording intervals... More about our weather records

Advertising

41°05'N, 73°55'W Weather History for the Previous 24 Hours

Scroll right to see more
 ConditionsComfort  
Time TempWeatherWind HumidityBarometerVisibility
5:51 pm
Sun, May 19
74 °FSunny.3 mph74%29.91 "Hg10 mi
4:51 pm75 °FSunny.6 mph71%29.93 "Hg10 mi
3:51 pm75 °FSunny.8 mph69%29.96 "Hg10 mi
2:51 pm74 °FSunny.N/A69%29.99 "Hg10 mi
1:51 pm74 °FSunny.5 mph64%30.02 "Hg10 mi
12:51 pm73 °FSunny.N/A64%30.03 "Hg10 mi
11:51 am73 °FSunny.6 mph59%30.04 "Hg10 mi
10:51 am70 °FOvercast.6 mph64%30.06 "Hg10 mi
9:51 am69 °FPassing clouds.No wind70%30.06 "Hg10 mi
8:51 am67 °FScattered clouds.No wind68%30.08 "Hg10 mi
7:51 am64 °FScattered clouds.3 mph73%30.08 "Hg10 mi
6:51 am63 °FOvercast.No wind70%30.09 "Hg10 mi
5:51 am62 °FMostly cloudy.No wind67%30.07 "Hg10 mi
4:51 am61 °FPassing clouds.No wind72%30.06 "Hg10 mi
3:51 am61 °FClear.No wind70%30.07 "Hg10 mi
2:51 am60 °FPassing clouds.3 mph67%30.07 "Hg10 mi
1:51 am61 °FClear.No wind62%30.07 "Hg10 mi
12:51 am60 °FClear.No wind60%30.07 "Hg10 mi
11:51 pm
Sat, May 18
60 °FPassing clouds.No wind60%30.06 "Hg10 mi
10:51 pm61 °FClear.No wind58%30.07 "Hg10 mi
9:51 pm61 °FClear.3 mph56%30.05 "Hg10 mi
8:51 pm63 °FClear.N/A48%30.02 "Hg10 mi
7:51 pm64 °FSunny.No wind49%30.01 "Hg10 mi
Weather by CustomWeather, © 2019

See weather overview